FW4235 Weather Reports


time (UTC)temp
F
wind
direction
speed
knots
gust
knots
rain 1hr
in
rain 24hr
in
rain mn
in
humidity
%
barometer
mb
20260506181007 66 245 0.0 0.0 0.00 0.00 0.00 47 1014.2
20260506180507 67 244 0.0 0.0 0.00 0.00 0.00 48 1014.1
20260506180006 67 242 0.0 0.0 0.00 0.00 0.00 47 1014.2
20260506175507 67 242 0.0 0.0 0.00 0.00 0.00 46 1014.1
20260506175006 67 241 0.0 0.0 0.00 0.00 0.00 44 1014.2
20260506174507 68 241 0.0 0.0 0.00 0.00 0.00 43 1014.1
20260506174007 68 241 0.0 0.0 0.00 0.00 0.00 43 1014.0
20260506173507 68 241 0.0 0.0 0.00 0.00 0.00 43 1013.9
20260506173006 68 241 0.0 0.0 0.00 0.00 0.00 43 1013.9
20260506172507 68 241 0.0 0.0 0.00 0.00 0.00 42 1013.9
20260506172007 69 256 0.0 0.0 0.00 0.00 0.00 42 1013.8
20260506171506 69 240 0.0 0.0 0.00 0.00 0.00 42 1013.8
20260506171007 69 232 0.0 0.0 0.00 0.00 0.00 42 1013.8
20260506170506 69 232 0.0 0.0 0.00 0.00 0.00 42 1013.7
20260506170006 69 232 0.0 0.0 0.00 0.00 0.00 42 1013.8
20260506165506 70 232 0.0 0.0 0.00 0.00 0.00 41 1013.7
20260506164007 70 223 0.0 0.0 0.00 0.00 0.00 40 1013.7
20260506163507 70 238 0.0 0.0 0.00 0.00 0.00 40 1013.7
20260506163006 71 223 0.0 0.0 0.00 0.00 0.00 39 1013.7
20260506162507 71 227 0.0 0.0 0.00 0.00 0.00 39 1013.7
20260506161007 71 238 0.0 0.0 0.00 0.00 0.00 38 1013.6
20260506160506 71 194 0.0 0.0 0.00 0.00 0.00 39 1013.6
20260506155506 71 190 0.0 0.0 0.00 0.00 0.00 39 1013.6
20260506155006 71 217 0.0 0.0 0.00 0.00 0.00 39 1013.6
20260506154506 72 167 0.0 0.0 0.00 0.00 0.00 39 1013.6
20260506154006 72 212 0.0 0.0 0.00 0.00 0.00 39 1013.6
20260506153007 72 200 0.0 0.0 0.00 0.00 0.00 39 1013.7
20260506152507 73 191 0.0 0.0 0.00 0.00 0.00 39 1013.8
20260506152007 73 198 0.0 0.0 0.00 0.00 0.00 38 1013.8
20260506151506 73 199 0.0 0.0 0.00 0.00 0.00 38 1013.7
20260506151007 73 166 0.0 0.0 0.00 0.00 0.00 37 1013.7
20260506150007 74 205 0.0 0.0 0.00 0.00 0.00 37 1013.7
20260506145006 74 172 0.0 0.0 0.00 0.00 0.00 38 1013.8
20260506144506 74 192 0.0 0.0 0.00 0.00 0.00 38 1013.8
20260506144007 74 174 0.0 0.0 0.00 0.00 0.00 39 1013.7
20260506142507 75 178 0.0 0.0 0.00 0.00 0.00 41 1013.7
20260506142006 74 185 0.0 0.0 0.00 0.00 0.00 41 1013.7
20260506141006 74 200 0.0 0.0 0.00 0.00 0.00 39 1013.7
20260506140506 74 169 0.0 0.0 0.00 0.00 0.00 40 1013.7
20260506140006 75 176 0.0 0.0 0.00 0.00 0.00 39 1013.7
20260506135006 75 185 0.0 0.0 0.00 0.00 0.00 39 1013.7
20260506134006 76 165 0.0 0.0 0.00 0.00 0.00 38 1013.8
20260506133507 76 165 0.0 0.0 0.00 0.00 0.00 38 1013.8
20260506133006 76 186 0.0 0.0 0.00 0.00 0.00 38 1013.8
20260506132507 76 175 0.0 0.0 0.00 0.00 0.00 37 1013.8
20260506132007 76 173 0.0 0.0 0.00 0.00 0.00 38 1013.8
20260506131506 76 194 0.0 0.0 0.00 0.00 0.00 38 1013.8
20260506130507 76 201 0.0 0.0 0.00 0.00 0.00 38 1013.8
20260506130006 75 181 0.0 0.0 0.00 0.00 0.00 38 1013.8
20260506125506 75 176 0.0 0.0 0.00 0.00 0.00 39 1013.8
20260506123506 77 186 0.0 0.0 0.00 0.00 0.00 39 1013.9
20260506123007 77 178 0.0 0.0 0.00 0.00 0.00 40 1013.9
20260506122506 78 182 0.0 0.0 0.00 0.00 0.00 39 1013.9
20260506122006 78 199 0.0 0.0 0.00 0.00 0.00 39 1013.9
20260506121506 77 214 0.0 0.0 0.00 0.00 0.00 35 1013.9
20260506120506 77 219 0.0 0.0 0.00 0.00 0.00 36 1014.1
20260506115006 78 226 0.0 0.0 0.00 0.00 0.00 35 1014.1
20260506114507 77 243 0.0 0.0 0.00 0.00 0.00 35 1014.2
20260506114007 78 247 0.0 0.0 0.00 0.00 0.00 35 1014.2
20260506113506 78 255 0.0 0.0 0.00 0.00 0.00 35 1014.2
20260506113006 78 256 0.0 0.0 0.00 0.00 0.00 34 1014.1
20260506112506 78 245 0.0 0.0 0.00 0.00 0.00 34 1014.2
20260506112007 78 233 0.0 0.0 0.00 0.00 0.00 34 1014.2
20260506111507 78 229 0.0 0.0 0.00 0.00 0.00 34 1014.2
20260506111008 78 310 0.0 0.0 0.00 0.00 0.00 33 1014.2
20260506110508 77 286 0.0 0.0 0.00 0.00 0.00 34 1014.2
20260506110007 77 281 0.0 0.0 0.00 0.00 0.00 33 1014.3
20260506105507 77 260 0.0 0.0 0.00 0.00 0.00 35 1014.2
20260506104508 77 259 0.0 0.0 0.00 0.00 0.00 35 1014.2
20260506104008 77 264 0.0 0.0 0.00 0.00 0.00 34 1014.3
20260506103507 77 249 0.0 0.0 0.00 0.00 0.00 33 1014.3
20260506103008 77 249 0.0 0.0 0.00 0.00 0.00 34 1014.3
20260506102508 77 263 0.0 0.0 0.00 0.00 0.00 34 1014.3
20260506102008 77 262 0.0 0.0 0.00 0.00 0.00 34 1014.3
20260506101507 77 282 0.0 0.0 0.00 0.00 0.00 34 1014.3
20260506101008 76 271 0.0 0.0 0.00 0.00 0.00 34 1014.4
20260506100507 77 252 0.0 0.0 0.00 0.00 0.00 35 1014.4
20260506094507 76 270 0.0 0.0 0.00 0.00 0.00 34 1014.5
20260506094007 76 270 0.0 0.0 0.00 0.00 0.00 35 1014.5
20260506093508 76 243 0.0 0.0 0.00 0.00 0.00 35 1014.5
20260506093008 76 252 0.0 0.0 0.00 0.00 0.00 35 1014.5
20260506092508 76 221 0.0 0.0 0.00 0.00 0.00 36 1014.6
20260506090508 75 251 0.0 0.0 0.00 0.00 0.00 38 1014.6
20260506090007 75 223 0.0 0.0 0.00 0.00 0.00 39 1014.6
20260506085507 75 258 0.0 0.0 0.00 0.00 0.00 38 1014.6
20260506085007 74 226 0.0 0.0 0.00 0.00 0.00 40 1014.6
20260506084507 74 244 0.0 0.0 0.00 0.00 0.00 39 1014.5
20260506084008 74 215 0.0 0.0 0.00 0.00 0.00 40 1014.5
20260506083007 74 232 0.0 0.0 0.00 0.00 0.00 42 1014.6
20260506082507 74 208 0.0 0.0 0.00 0.00 0.00 42 1014.6
20260506082009 74 221 0.0 0.0 0.00 0.00 0.00 42 1014.5
20260506081508 74 238 0.0 0.0 0.00 0.00 0.00 42 1014.6
20260506081008 74 207 0.0 0.0 0.00 0.00 0.00 43 1014.6
20260506080507 74 213 0.0 0.0 0.00 0.00 0.00 43 1014.5
20260506073008 73 142 0.0 0.0 0.00 0.00 0.00 40 1014.3
20260506071507 71 104 0.0 0.0 0.00 0.00 0.00 43 1014.2
20260506071007 71 152 0.0 0.0 0.00 0.00 0.00 45 1014.2
20260506070507 70 163 0.0 0.0 0.00 0.00 0.00 47 1014.2
20260506062507 68 82 0.0 0.0 0.00 0.00 0.00 52 1014.3
20260506062007 68 119 0.0 0.0 0.00 0.00 0.00 53 1014.2
20260506061007 68 87 0.0 0.0 0.00 0.00 0.00 54 1014.2
20260506060508 67 111 0.0 0.0 0.00 0.00 0.00 54 1014.2
20260506050508 63 269 0.0 0.0 0.00 0.00 0.00 61 1014.1
20260506044507 62 269 0.0 0.0 0.00 0.00 0.00 64 1013.8
20260506044007 61 269 0.0 0.0 0.00 0.00 0.00 66 1013.8
20260506043508 60 269 0.0 0.0 0.00 0.00 0.00 65 1013.8
20260506043008 60 269 0.0 0.0 0.00 0.00 0.00 65 1013.8
20260506042507 60 269 0.0 0.0 0.00 0.00 0.00 66 1013.7
20260506042007 59 268 0.0 0.0 0.00 0.00 0.00 66 1013.7
20260506041507 59 268 0.0 0.0 0.00 0.00 0.00 66 1013.7
20260506040507 59 269 0.0 0.0 0.00 0.00 0.00 66 1013.6
20260506040008 59 269 0.0 0.0 0.00 0.00 0.00 66 1013.5
20260506035007 59 269 0.0 0.0 0.00 0.00 0.00 65 1013.5
20260506034507 59 268 0.0 0.0 0.00 0.00 0.00 65 1013.4
20260506034007 59 268 0.0 0.0 0.00 0.00 0.00 65 1013.3
20260506033507 59 268 0.0 0.0 0.00 0.00 0.00 65 1013.3
20260506033007 59 268 0.0 0.0 0.00 0.00 0.00 65 1013.3
20260506032508 59 268 0.0 0.0 0.00 0.00 0.00 65 1013.3
20260506032008 59 268 0.0 0.0 0.00 0.00 0.00 65 1013.3
20260506031508 59 268 0.0 0.0 0.00 0.00 0.00 65 1013.3
20260506031008 59 268 0.0 0.0 0.00 0.00 0.00 65 1013.3
20260506030507 59 268 0.0 0.0 0.00 0.00 0.00 65 1013.2
20260506030007 59 268 0.0 0.0 0.00 0.00 0.00 65 1013.2
20260506025508 59 268 0.0 0.0 0.00 0.00 0.00 65 1013.2
20260506025008 59 268 0.0 0.0 0.00 0.00 0.00 65 1013.2
20260506024008 58 269 0.0 0.0 0.00 0.00 0.00 66 1013.1
20260506023507 58 261 0.0 0.0 0.00 0.00 0.00 66 1013.1
20260506023008 58 261 0.0 0.0 0.00 0.00 0.00 67 1013.2
20260506022507 58 261 0.0 0.0 0.00 0.00 0.00 67 1013.2
20260506022007 58 261 0.0 0.0 0.00 0.00 0.00 67 1013.2
20260506021507 58 261 0.0 0.0 0.00 0.00 0.00 67 1013.2
20260506021007 58 261 0.0 0.0 0.00 0.00 0.00 67 1013.3
20260506020508 58 261 0.0 0.0 0.00 0.00 0.00 67 1013.3
20260506015507 58 242 0.0 0.0 0.00 0.00 0.00 66 1013.3
20260506014007 58 242 0.0 0.0 0.00 0.00 0.00 65 1013.4
20260506013507 58 242 0.0 0.0 0.00 0.00 0.00 65 1013.5
20260506013008 59 242 0.0 0.0 0.00 0.00 0.00 65 1013.5
20260506012507 59 242 0.0 0.0 0.00 0.00 0.00 65 1013.5
20260506012008 59 242 0.0 0.0 0.00 0.00 0.00 65 1013.5
20260506011507 59 242 0.0 0.0 0.00 0.00 0.00 65 1013.5
20260506011007 59 242 0.0 0.0 0.00 0.00 0.00 66 1013.4
20260506010507 59 242 0.0 0.0 0.00 0.00 0.00 66 1013.4
20260506010007 59 242 0.0 0.0 0.00 0.00 0.00 66 1013.5
20260506005507 59 242 0.0 0.0 0.00 0.00 0.00 65 1013.5
20260506005008 59 242 0.0 0.0 0.00 0.00 0.00 65 1013.5
20260506004507 59 242 0.0 0.0 0.00 0.00 0.00 65 1013.5
20260506004007 59 242 0.0 0.0 0.00 0.00 0.00 64 1013.5
20260506003508 59 242 0.0 0.0 0.00 0.00 0.00 64 1013.5
20260506002507 60 242 0.0 0.0 0.00 0.00 0.00 63 1013.5
20260506002008 61 242 0.0 0.0 0.00 0.00 0.00 62 1013.5
20260506001007 61 244 0.0 0.0 0.00 0.00 0.00 62 1013.5
20260506000508 61 245 0.0 0.0 0.00 0.00 0.00 61 1013.5
20260506000007 61 246 0.0 0.0 0.00 0.00 0.00 61 1013.5
20260505235507 61 264 0.0 0.0 0.00 0.00 0.00 61 1013.5
20260505235007 61 264 0.0 0.0 0.00 0.00 0.00 60 1013.5
20260505234507 62 233 0.0 0.0 0.00 0.00 0.00 60 1013.6
20260505234008 62 236 0.0 0.0 0.00 0.00 0.00 59 1013.6
20260505233507 62 237 0.0 0.0 0.00 0.00 0.00 59 1013.7
20260505233007 62 237 0.0 0.0 0.00 0.00 0.00 59 1013.7
20260505232507 62 233 0.0 0.0 0.00 0.00 0.00 59 1013.7
20260505232007 62 242 0.0 0.0 0.00 0.00 0.00 59 1013.7
20260505231507 62 243 0.0 0.0 0.00 0.00 0.00 58 1013.7
20260505231008 62 245 0.0 0.0 0.00 0.00 0.00 58 1013.8
20260505230507 62 252 0.0 0.0 0.00 0.00 0.00 58 1013.8
20260505230007 62 259 0.0 0.0 0.00 0.00 0.00 57 1013.8
20260505225507 62 267 0.0 0.0 0.00 0.00 0.00 57 1013.9
20260505225008 63 268 0.0 0.0 0.00 0.00 0.00 57 1013.9
20260505224507 63 279 0.0 0.0 0.00 0.00 0.00 57 1014.0
20260505224007 63 291 0.0 0.0 0.00 0.00 0.00 57 1014.0
20260505223507 63 291 0.0 0.0 0.00 0.00 0.00 57 1014.1
20260505223008 63 290 0.0 0.0 0.00 0.00 0.00 57 1014.1
20260505222508 63 290 0.0 0.0 0.00 0.00 0.00 57 1014.1
20260505222008 63 290 0.0 0.0 0.00 0.00 0.00 57 1014.1
20260505221007 63 290 0.0 0.0 0.00 0.00 0.00 57 1014.1
20260505220508 62 290 0.0 0.0 0.00 0.00 0.00 57 1014.1
20260505220007 62 290 0.0 0.0 0.00 0.00 0.00 56 1014.1
20260505215510 62 290 0.0 0.0 0.00 0.00 0.00 55 1014.1
20260505215007 62 286 0.0 0.0 0.00 0.00 0.00 56 1014.0
20260505214507 61 297 0.0 0.0 0.00 0.00 0.00 56 1014.0
20260505214007 61 336 0.0 0.0 0.00 0.00 0.00 57 1014.0
20260505213507 61 11 0.0 0.0 0.00 0.00 0.00 57 1014.0
20260505213008 61 12 0.0 0.0 0.00 0.00 0.00 57 1014.1
20260505212508 61 12 0.0 0.0 0.00 0.00 0.00 57 1014.1
20260505212008 61 12 0.0 0.0 0.00 0.00 0.00 57 1014.1
20260505211507 61 11 0.0 0.0 0.00 0.00 0.00 57 1014.2
20260505211007 62 12 0.0 0.0 0.00 0.00 0.00 56 1014.2
20260505210007 63 265 0.0 0.0 0.00 0.00 0.00 55 1014.3
20260505205507 63 265 0.0 0.0 0.00 0.00 0.00 53 1014.2
20260505205007 63 265 0.0 0.0 0.00 0.00 0.00 53 1014.2
20260505204507 63 265 0.0 0.0 0.00 0.00 0.00 52 1014.3
20260505204007 63 264 0.0 0.0 0.00 0.00 0.00 52 1014.3
20260505203508 63 290 0.0 0.0 0.00 0.00 0.00 52 1014.3
20260505203007 63 5 0.0 0.0 0.00 0.00 0.00 53 1014.2
20260505202507 63 5 0.0 0.0 0.00 0.00 0.00 53 1014.3
20260505202007 63 45 0.0 0.0 0.00 0.00 0.00 54 1014.4
20260505201507 63 45 0.0 0.0 0.00 0.00 0.00 55 1014.4
20260505201007 63 45 0.0 0.0 0.00 0.00 0.00 56 1014.4
20260505200507 63 45 0.0 0.0 0.00 0.00 0.00 56 1014.3
20260505200007 63 45 0.0 0.0 0.00 0.00 0.00 56 1014.3
20260505195507 63 45 0.0 0.0 0.00 0.00 0.00 57 1014.3
20260505195008 63 45 0.0 0.0 0.00 0.00 0.00 57 1014.3
20260505194007 63 45 0.0 0.0 0.00 0.00 0.00 57 1014.3
20260505192507 64 45 0.0 0.0 0.00 0.00 0.00 57 1014.3
20260505192007 64 46 0.0 0.0 0.00 0.00 0.00 57 1014.3
20260505191507 64 46 0.0 0.0 0.00 0.00 0.00 57 1014.3
20260505191008 64 46 0.0 0.0 0.00 0.00 0.00 56 1014.2
20260505190507 64 46 0.0 0.0 0.00 0.00 0.00 56 1014.2
20260505190007 64 46 0.0 0.0 0.00 0.00 0.00 55 1014.2
20260505185507 64 49 0.0 0.0 0.00 0.00 0.00 55 1014.1
20260505185007 65 42 0.0 0.0 0.00 0.00 0.00 54 1014.0
20260505184507 65 40 0.0 0.0 0.00 0.00 0.00 54 1013.9
20260505184007 65 40 0.0 0.0 0.00 0.00 0.00 53 1013.9
20260505183507 66 51 0.0 0.0 0.00 0.00 0.00 53 1013.9
20260505183007 66 52 0.0 0.0 0.00 0.00 0.00 52 1013.8
20260505182507 66 52 0.0 0.0 0.00 0.00 0.00 52 1013.8
20260505182008 66 52 0.0 0.0 0.00 0.00 0.00 52 1013.7
20260505181507 67 52 0.0 0.0 0.00 0.00 0.00 52 1013.7